Date String (YYYY-MM-DD hh:mm:ss) UTC,Instrument flags,Ambient pressure (hPa),Sample flow (lpm),Bypass flow (lpm),Sample temperature (°C),Ambient temperature (°C),ASC tube jacket temperature (°C),LED temperature (°C),Box temperature (°C),Sample RH (%),Span deviation,Mass concentration (μg/m³),Mass concentration (μg/m³),Mass concentration (μg/m³)
DateTimeUTC,F1_M11,P_M11,Q1_M11,Q2_M11,T1_M11,T2_M11,T3_M11,T4_M11,T5_M11,U1_M11,ZSPAN_M11,X0_M11,X2_M11,X1_M11
2022-11-21 22:00:00,,0828.3,4.99,0.00,28.9,27.8,00.0,37.7,30.8,06.1,0007.2,0015.03,0008.91,0008.39
2022-11-21 22:01:00,,0828.3,5.00,0.00,28.9,27.8,00.0,37.7,30.7,05.8,0006.6,0014.48,0008.69,0008.12
2022-11-21 22:02:00,,0828.4,5.00,0.00,28.9,27.8,00.0,37.7,30.8,05.9,0000.8,0013.65,0008.40,0007.84
2022-11-21 22:03:00,,0828.4,5.02,0.00,29.0,27.8,00.0,37.7,30.8,06.0,0000.0,0012.85,0008.03,0007.51
2022-11-21 22:04:00,,0828.5,5.00,0.00,29.0,27.8,00.0,37.7,30.8,05.8,0000.0,0011.97,0007.68,0007.17
2022-11-21 22:05:00,,0828.5,4.99,0.00,29.0,27.8,00.0,37.8,30.8,05.8,0000.0,0011.42,0007.29,0006.79
2022-11-21 22:06:00,,0828.5,5.00,0.00,29.0,27.8,00.0,37.8,30.8,05.8,0000.0,0010.64,0006.91,0006.45
2022-11-21 22:07:00,,0828.4,5.00,0.00,29.0,27.8,00.0,37.8,30.8,05.8,0000.0,0010.29,0006.62,0006.15
2022-11-21 22:08:00,,0828.4,5.00,0.00,29.0,27.8,00.0,37.8,30.8,05.6,0000.0,0010.05,0006.29,0005.82
2022-11-21 22:09:00,,0828.4,5.00,0.00,29.0,27.9,00.0,37.8,30.8,05.5,0000.0,0009.79,0006.00,0005.54
2022-11-21 22:10:00,,0828.4,5.00,0.00,29.0,27.9,00.0,37.8,30.8,05.5,0000.0,0009.47,0005.80,0005.34
2022-11-21 22:11:00,,0828.3,5.01,0.00,29.0,27.9,00.0,37.8,30.8,05.5,0000.0,0009.25,0005.65,0005.20
2022-11-21 22:12:00,,0828.4,5.01,0.00,29.1,27.9,00.0,37.8,30.9,05.6,0000.0,0009.25,0005.60,0005.15
2022-11-21 22:13:00,,0828.4,5.01,0.00,29.1,27.9,00.0,37.8,30.9,05.5,0000.0,0009.27,0005.56,0005.13
2022-11-21 22:14:00,,0828.4,5.00,0.00,29.1,27.9,00.0,37.9,30.9,05.5,0000.0,0009.46,0005.58,0005.12
2022-11-21 22:15:00,,0828.6,5.00,0.00,29.1,27.9,00.0,37.9,30.9,05.6,0000.0,0009.58,0005.59,0005.12
2022-11-21 22:16:00,,0828.4,5.00,0.00,29.1,27.9,00.0,37.9,30.9,05.6,0000.0,0010.00,0005.68,0005.20
2022-11-21 22:17:00,,0828.3,4.98,0.00,29.1,27.9,00.0,37.9,30.9,05.5,0000.0,0010.51,0005.81,0005.31
2022-11-21 22:18:00,,0828.4,5.01,0.00,29.1,27.9,00.0,37.9,30.9,05.5,0000.0,0010.76,0005.96,0005.46
2022-11-21 22:19:00,,0828.4,5.00,0.00,29.1,27.9,00.0,37.9,31.0,05.5,0000.0,0010.99,0006.16,0005.66
2022-11-21 22:20:00,,0828.3,5.00,0.00,29.1,27.9,00.0,37.9,31.0,05.6,0000.0,0011.40,0006.40,0005.87
2022-11-21 22:21:00,,0828.3,5.00,0.00,29.1,27.9,00.0,37.9,31.0,05.5,0000.0,0011.89,0006.67,0006.10
2022-11-21 22:22:00,,0828.3,5.00,0.00,29.1,27.9,00.0,37.9,31.0,05.5,0000.0,0012.63,0006.94,0006.33
2022-11-21 22:23:00,,0828.3,4.99,0.00,29.1,27.9,00.0,37.9,31.0,05.5,0000.0,0013.33,0007.18,0006.57
2022-11-21 22:24:00,,0828.3,4.99,0.00,29.1,27.9,00.0,38.0,31.0,05.5,0000.0,0013.98,0007.46,0006.82
2022-11-21 22:25:00,,0828.4,5.01,0.00,29.2,27.9,00.0,38.0,31.0,05.7,0000.0,0014.31,0007.52,0006.89
2022-11-21 22:26:00,,0828.3,5.00,0.00,29.2,28.0,00.0,38.0,31.0,05.9,0000.0,0014.33,0007.49,0006.84
2022-11-21 22:27:00,,0828.4,4.99,0.00,29.2,28.0,00.0,38.0,31.0,06.0,0000.0,0014.42,0007.38,0006.73
2022-11-21 22:28:00,,0828.4,5.00,0.00,29.2,28.0,00.0,38.0,31.0,05.9,0000.0,0013.94,0007.27,0006.60
2022-11-21 22:29:00,,0828.3,5.01,0.00,29.2,28.0,00.0,38.0,31.0,05.6,0000.0,0013.73,0007.12,0006.45
2022-11-21 22:30:00,,0828.3,5.00,0.00,29.2,28.0,00.0,38.0,31.0,05.6,0000.0,0013.47,0006.91,0006.26
2022-11-21 22:31:00,,0828.3,5.00,0.00,29.2,28.0,00.0,38.0,31.0,05.2,0000.0,0012.96,0006.68,0006.07
2022-11-21 22:32:00,,0828.3,5.00,0.00,29.2,28.0,00.0,38.0,31.0,05.1,0000.0,0012.52,0006.41,0005.83
2022-11-21 22:33:00,,0828.3,5.00,0.00,29.2,28.0,00.0,38.0,31.0,05.0,0000.0,0011.74,0006.07,0005.53
2022-11-21 22:34:00,,0828.3,4.99,0.00,29.2,28.0,00.0,38.0,31.0,05.0,0000.0,0010.89,0005.77,0005.23
2022-11-21 22:35:00,,0828.4,4.99,0.00,29.2,28.0,00.0,38.0,31.0,05.0,0000.0,0010.30,0005.46,0004.94
2022-11-21 22:36:00,,0828.3,5.00,0.00,29.2,28.0,00.0,38.1,31.0,05.2,0000.0,0010.33,0005.39,0004.90
2022-11-21 22:37:00,,0828.3,5.01,0.00,29.2,28.0,00.0,38.1,31.0,05.2,0000.0,0011.01,0005.52,0005.03
2022-11-21 22:38:00,,0828.3,5.01,0.00,29.2,28.0,00.0,38.1,31.0,05.2,0000.0,0011.44,0005.72,0005.20
2022-11-21 22:39:00,,0828.3,5.00,0.00,29.2,28.0,00.0,38.1,31.1,05.2,0000.0,0011.77,0005.91,0005.37
2022-11-21 22:40:00,,0828.3,4.99,0.00,29.3,28.0,00.0,38.1,31.1,05.2,0000.0,0012.52,0006.19,0005.60
2022-11-21 22:41:00,,0828.3,5.01,0.00,29.3,28.0,00.0,38.1,31.1,05.2,0000.0,0013.10,0006.56,0005.93
2022-11-21 22:42:00,,0828.3,5.01,0.00,29.3,28.0,00.0,38.1,31.1,05.3,0000.0,0014.16,0006.93,0006.29
2022-11-21 22:43:00,,0828.3,5.00,0.00,29.3,28.0,00.0,38.1,31.1,05.4,0000.0,0015.25,0007.28,0006.61
2022-11-21 22:44:00,,0828.3,4.99,0.00,29.3,28.0,00.0,38.1,31.1,05.6,0000.0,0016.26,0007.66,0006.94
2022-11-21 22:45:00,,0828.4,4.99,0.00,29.3,28.0,00.0,38.1,31.1,05.6,0000.0,0017.23,0008.02,0007.25
2022-11-21 22:46:00,,0828.4,5.01,0.00,29.3,28.0,00.0,38.1,31.1,05.6,0000.0,0018.98,0008.38,0007.60
2022-11-21 22:47:00,,0828.4,5.01,0.00,29.3,28.0,00.0,38.1,31.1,05.5,0000.0,0019.99,0008.71,0007.89
2022-11-21 22:48:00,,0828.4,5.00,0.00,29.3,28.0,00.0,38.1,31.1,05.5,0000.0,0020.28,0009.01,0008.13
2022-11-21 22:49:00,,0828.4,4.99,0.00,29.3,28.0,00.0,38.1,31.1,05.5,0000.0,0020.18,0009.21,0008.32
2022-11-21 22:50:00,,0828.4,5.00,0.00,29.3,28.0,00.0,38.1,31.1,05.6,0000.0,0020.81,0009.38,0008.49
2022-11-21 22:51:00,,0828.4,5.01,0.00,29.3,28.0,00.0,38.1,31.1,05.6,0000.0,0021.41,0009.56,0008.64
2022-11-21 22:52:00,,0828.4,5.01,0.00,29.3,28.0,00.0,38.1,31.1,05.6,0001.2,0021.61,0009.62,0008.71
2022-11-21 22:53:00,,0828.5,5.00,0.00,29.3,28.0,00.0,38.2,31.1,05.6,0000.4,0021.50,0009.65,0008.73
2022-11-21 22:54:00,,0828.5,5.00,0.00,29.3,28.1,00.0,38.2,31.1,05.7,0000.0,0020.97,0009.63,0008.70
2022-11-21 22:55:00,,0828.5,5.00,0.00,29.3,28.1,00.0,38.2,31.1,05.8,0000.9,0020.95,0009.53,0008.59
2022-11-21 22:56:00,,0828.5,4.99,0.00,29.3,28.1,00.0,38.2,31.1,05.8,0002.2,0020.67,0009.36,0008.46
2022-11-21 22:57:00,,0828.5,4.99,0.00,29.3,28.1,00.0,38.2,31.1,05.9,0001.9,0019.45,0009.26,0008.33
2022-11-21 22:58:00,,0828.5,5.00,0.00,29.3,28.1,00.0,38.2,31.1,06.0,0000.7,0018.27,0009.18,0008.22
2022-11-21 22:59:00,,0828.5,5.01,0.00,29.4,28.1,00.0,38.2,31.1,05.9,0000.6,0017.63,0009.02,0008.09
